User: anonymous   Login
Location: Oshawa
(43.9000°N, 78.8670°W)
Time: 09:08:12
(UTC-04:00)
Language:

CZ-4C R/B - Orbit

View from above orbital plane
View from above orbital plane
View from above satellite
View from above satellite

Ground track
Ground track

The orbit data is extracted from the following two-line orbital elements,

1 32290U 07055B   16121.15850311  .00005375  00000-0  16252-3 0  9997
2 32290  97.5242 213.9934 0072168 161.2363 199.1564 15.32083177468521
Epoch (UTC): 30 April 2016 03:48:14
Eccentricity: 0.0072168
inclination: 97.5242°
perigee height: 420 km
apogee height: 519 km
right ascension of ascending node: 213.9934°
argument of perigee: 161.2363°
revolutions per day: 15.32083177
mean anomaly at epoch: 199.1564°
orbit number at epoch: 46852

The dashed part of the orbit path shows where the satellite is in the earth's shadow,  

DLR